STARLINK-34444 (64369 NORAD) Tracking and Keplerian Element Data

This shows tracking and keplerian element data for the satellite.

Feedback or suggestion? Click here.




ElementValue
Catalog64369
NameSTARLINK-34444
Epoch Orbit2874
Epoch Day354.01223474
Epoch Year2025
RAAN235.4805
Inclination70.0001
Eccentricity0.0002672
Argument of Perigee269.6411
Mean Anonmoly90.4441
Mean Motion14.98330288
Decay Rate9.86E-06
L11 64369U 25126AB 25354.01223474 .00000986 00000+0 90398-4 0 9991
L22 64369 70.0001 235.4805 0002672 269.6411 90.4441 14.98330288 28740



Live tracking and technical data element details for STARLINK-34444 (NORAD 64369). STARLINK-34444 can be tracked NOW for your location showing map with azimuth and elevation plus other details from your city location.







IsCatalogInMostPopularTable: catalog: 64369, numindb: 4
Update: records affected: 1



GetName: 64369 STARLINK-34444

Hit Count: updated at: Sun, 08 Feb 2026 17:27:37 GMT